Hourly Weather Klepary

Today, 21 April, Wednesday

Time Temperature Precipitation Wind Pressure Humidity
00:00 +10°C° 0.1 mm 1 mps 751 mmHg 83%
01:00 +9°C° 0 mm 1 mps 751 mmHg 86%
02:00 +9°C° 0.1 mm 1 mps 751 mmHg 88%
03:00 +8°C° 0.1 mm 1 mps 750 mmHg 89%
04:00 +8°C° 0.1 mm 1 mps 750 mmHg 91%
05:00 +9°C° 0 mm 1 mps 750 mmHg 88%
06:00 +10°C° 0 mm 1 mps 750 mmHg 85%
07:00 +11°C° 0 mm 1 mps 750 mmHg 82%
08:00 +12°C° 0.3 mm 2 mps 750 mmHg 75%
09:00 +12°C° 0.3 mm 3 mps 750 mmHg 68%
10:00 +14°C° 0.3 mm 3 mps 750 mmHg 61%
11:00 +14°C° 0.2 mm 4 mps 750 mmHg 55%
12:00 +15°C° 0.2 mm 4 mps 750 mmHg 49%
13:00 +15°C° 0.2 mm 4 mps 750 mmHg 44%
14:00 +15°C° 0 mm 4 mps 750 mmHg 46%
15:00 +15°C° 0 mm 4 mps 749 mmHg 48%
16:00 +15°C° 0 mm 4 mps 749 mmHg 49%
17:00 +13°C° 0 mm 4 mps 749 mmHg 55%
18:00 +12°C° 0 mm 3 mps 749 mmHg 61%
19:00 +11°C° 0 mm 3 mps 749 mmHg 67%
20:00 +9°C° 0 mm 3 mps 750 mmHg 72%
21:00 +7°C° 0 mm 4 mps 750 mmHg 77%
22:00 +6°C° 0 mm 4 mps 750 mmHg 83%
23:00 +6°C° 0 mm 4 mps 750 mmHg 78%

Tomorrow, 22 April, Thursday

Time Temperature Precipitation Wind Pressure Humidity
00:00 +5°C° 0 mm 4 mps 750 mmHg 74%
01:00 +5°C° 0 mm 4 mps 750 mmHg 70%
02:00 +3°C° 0 mm 5 mps 751 mmHg 70%
03:00 +2°C° 0 mm 5 mps 751 mmHg 70%
04:00 +1°C° 0 mm 6 mps 751 mmHg 71%
05:00 +1°C° 0 mm 6 mps 751 mmHg 71%
06:00 +1°C° 0 mm 6 mps 751 mmHg 70%
07:00 0°C° 0 mm 7 mps 751 mmHg 70%
08:00 +2°C° 0 mm 7 mps 751 mmHg 67%
09:00 +3°C° 0 mm 7 mps 751 mmHg 63%
10:00 +5°C° 0 mm 8 mps 752 mmHg 59%
11:00 +5°C° 0.2 mm 8 mps 752 mmHg 60%
12:00 +5°C° 0.2 mm 8 mps 752 mmHg 61%
13:00 +6°C° 0.2 mm 8 mps 752 mmHg 62%
14:00 +5°C° 0.2 mm 8 mps 752 mmHg 62%
15:00 +5°C° 0.2 mm 7 mps 752 mmHg 62%
16:00 +5°C° 0.2 mm 7 mps 752 mmHg 63%
17:00 +4°C° 0 mm 6 mps 753 mmHg 61%
18:00 +4°C° 0 mm 6 mps 753 mmHg 60%
19:00 +3°C° 0 mm 5 mps 753 mmHg 59%
20:00 +2°C° 0 mm 5 mps 753 mmHg 63%
21:00 +2°C° 0 mm 5 mps 754 mmHg 66%
22:00 +1°C° 0 mm 5 mps 754 mmHg 70%
23:00 +1°C° 0 mm 5 mps 754 mmHg 72%

Day after tomorrow, 23 April, Friday

Time Temperature Precipitation Wind Pressure Humidity
00:00 0°C° 0 mm 5 mps 754 mmHg 73%
01:00 0°C° 0 mm 5 mps 754 mmHg 75%
02:00 0°C° 0 mm 5 mps 754 mmHg 75%
03:00 -1°C° 0 mm 5 mps 754 mmHg 74%
04:00 -1°C° 0 mm 5 mps 754 mmHg 74%
05:00 0°C° 0 mm 5 mps 755 mmHg 72%
06:00 +1°C° 0 mm 5 mps 755 mmHg 70%
07:00 +2°C° 0 mm 5 mps 755 mmHg 69%
08:00 +2°C° 0.2 mm 5 mps 755 mmHg 75%
09:00 +2°C° 0.2 mm 6 mps 755 mmHg 81%
10:00 +2°C° 0.2 mm 6 mps 755 mmHg 87%
11:00 +3°C° 0.6 mm 5 mps 755 mmHg 80%
12:00 +3°C° 0.6 mm 5 mps 755 mmHg 73%
13:00 +3°C° 0.6 mm 5 mps 755 mmHg 66%
14:00 +4°C° 0.1 mm 6 mps 756 mmHg 63%
15:00 +4°C° 0.1 mm 7 mps 756 mmHg 60%
16:00 +4°C° 0.1 mm 8 mps 756 mmHg 57%
17:00 +3°C° 0.1 mm 7 mps 757 mmHg 61%
18:00 +2°C° 0.1 mm 5 mps 757 mmHg 64%
19:00 +1°C° 0.1 mm 4 mps 757 mmHg 67%
20:00 0°C° 0 mm 4 mps 757 mmHg 69%
21:00 0°C° 0 mm 4 mps 757 mmHg 70%
22:00 -1°C° 0 mm 4 mps 758 mmHg 72%
23:00 -1°C° 0 mm 4 mps 758 mmHg 74%

24 April, Saturday

Time Temperature Precipitation Wind Pressure Humidity
00:00 -1°C° 0 mm 4 mps 758 mmHg 76%
01:00 -2°C° 0 mm 4 mps 758 mmHg 78%
02:00 -2°C° 0 mm 4 mps 758 mmHg 79%
03:00 -2°C° 0 mm 4 mps 758 mmHg 80%
04:00 -2°C° 0 mm 5 mps 758 mmHg 80%
05:00 -1°C° 0 mm 5 mps 758 mmHg 75%
06:00 0°C° 0 mm 5 mps 758 mmHg 70%
07:00 +2°C° 0 mm 5 mps 758 mmHg 65%
08:00 +3°C° 0 mm 5 mps 758 mmHg 56%
09:00 +6°C° 0 mm 5 mps 758 mmHg 48%
10:00 +7°C° 0 mm 5 mps 758 mmHg 40%
11:00 +7°C° 0.1 mm 5 mps 758 mmHg 44%
12:00 +7°C° 0.1 mm 5 mps 758 mmHg 47%
13:00 +7°C° 0.1 mm 5 mps 758 mmHg 51%
14:00 +7°C° 0.2 mm 5 mps 758 mmHg 51%
15:00 +7°C° 0.2 mm 5 mps 758 mmHg 51%
16:00 +6°C° 0.2 mm 5 mps 758 mmHg 52%
17:00 +5°C° 0.1 mm 5 mps 758 mmHg 54%
18:00 +4°C° 0.1 mm 4 mps 758 mmHg 56%
19:00 +3°C° 0.1 mm 3 mps 759 mmHg 58%
20:00 +1°C° 0 mm 3 mps 759 mmHg 63%
21:00 +1°C° 0 mm 2 mps 759 mmHg 68%
22:00 -1°C° 0 mm 2 mps 760 mmHg 73%
23:00 -1°C° 0 mm 2 mps 760 mmHg 73%

25 April, Sunday

Time Temperature Precipitation Wind Pressure Humidity
00:00 -2°C° 0 mm 2 mps 760 mmHg 72%
01:00 -2°C° 0 mm 3 mps 760 mmHg 72%
02:00 -2°C° 0 mm 3 mps 760 mmHg 73%
03:00 -2°C° 0 mm 3 mps 760 mmHg 73%
04:00 -2°C° 0 mm 3 mps 760 mmHg 74%
05:00 -1°C° 0 mm 3 mps 760 mmHg 70%
06:00 0°C° 0 mm 4 mps 760 mmHg 67%
07:00 +1°C° 0 mm 4 mps 759 mmHg 63%
08:00 +3°C° 0 mm 5 mps 759 mmHg 55%
09:00 +4°C° 0 mm 6 mps 759 mmHg 48%
10:00 +5°C° 0 mm 7 mps 759 mmHg 40%
11:00 +6°C° 0 mm 7 mps 759 mmHg 39%
12:00 +6°C° 0 mm 7 mps 758 mmHg 37%
13:00 +8°C° 0 mm 7 mps 758 mmHg 36%
14:00 +8°C° 0 mm 7 mps 758 mmHg 38%
15:00 +6°C° 0 mm 7 mps 758 mmHg 39%
16:00 +6°C° 0 mm 7 mps 758 mmHg 41%
17:00 +6°C° 0 mm 5 mps 759 mmHg 46%
18:00 +4°C° 0 mm 4 mps 759 mmHg 50%
19:00 +2°C° 0 mm 3 mps 759 mmHg 55%
20:00 +1°C° 0 mm 3 mps 759 mmHg 57%
21:00 +1°C° 0 mm 2 mps 759 mmHg 60%
22:00 -1°C° 0 mm 2 mps 759 mmHg 63%
23:00 -1°C° 0 mm 2 mps 759 mmHg 69%

26 April, Monday

Time Temperature Precipitation Wind Pressure Humidity
00:00 -1°C° 0 mm 2 mps 759 mmHg 75%
01:00 -1°C° 0 mm 2 mps 759 mmHg 80%
02:00 -1°C° 0 mm 3 mps 759 mmHg 83%
03:00 -1°C° 0 mm 3 mps 759 mmHg 85%
04:00 -2°C° 0 mm 3 mps 758 mmHg 87%
05:00 0°C° 0 mm 3 mps 759 mmHg 80%
06:00 +1°C° 0 mm 4 mps 759 mmHg 72%
07:00 +3°C° 0 mm 4 mps 759 mmHg 64%
08:00 +5°C° 0 mm 4 mps 758 mmHg 58%
09:00 +6°C° 0 mm 4 mps 758 mmHg 52%
10:00 +8°C° 0 mm 4 mps 758 mmHg 46%
11:00 +10°C° 0 mm 3 mps 758 mmHg 44%
12:00 +10°C° 0 mm 3 mps 757 mmHg 41%
13:00 +11°C° 0 mm 3 mps 757 mmHg 39%
14:00 +12°C° 0 mm 2 mps 757 mmHg 39%
15:00 +12°C° 0 mm 2 mps 756 mmHg 39%
16:00 +12°C° 0 mm 2 mps 756 mmHg 39%
17:00 +10°C° 0 mm 2 mps 756 mmHg 45%
18:00 +8°C° 0 mm 2 mps 756 mmHg 52%
19:00 +7°C° 0 mm 2 mps 755 mmHg 58%
20:00 +6°C° 0 mm 2 mps 755 mmHg 60%
21:00 +5°C° 0 mm 2 mps 755 mmHg 62%
22:00 +3°C° 0 mm 3 mps 755 mmHg 64%
23:00 +3°C° 0 mm 3 mps 755 mmHg 64%
Show more

We Need Your Consent

Meteoprog and our Service Providers may store and access personal data such as cookies, device identifiers or other similar technologies on your device and process such data to personalise content and ads, as well as provide social media features and to analyse the traffic.

  • Store and/or access information on your device

    Cookies, device identifiers or other information can be stored or accessed on your device for the purposes indicated above.

  • Personalised ads and content, ad and content measurement, audience insights, and products development

    Ads and content can be personalised based on a profile. More data can be added to better personalise ads and content. Ad and content performance can be measured. Insights about the audience who saw the ads and content can be derived. Such data can be used to develop or improve user’s experience, systems and software.

By clicking ‘I Agree’ you will allow the use of indicated cookies, device identifiers, web beacons or other similar technologies. Your settings can be changed in the browser on your device.

For certain purposes, legitimate interests may be relied on, rather than consent. You can read more about this in our Privacy and Cookie Policy.